Weather History for KHYA - April, 2014

Change the Weather History Date:

Monday, April 14, 2014

  Actual Average Record
Temperature  
Mean Temperature 58 °F -  
Max Temperature 64 °F - - ()
Min Temperature 52 °F - - ()
Degree Days  
Heating Degree Days 7    
Growing Degree Days 8 (Base 50)    
Moisture  
Dew Point 51 °F    
Average Humidity 86    
Maximum Humidity 97    
Minimum Humidity 65    
Precipitation  
Precipitation 0.00 in - - ()
Sea Level Pressure  
Sea Level Pressure 30.05 in    
Wind  
Wind Speed 15 mph (SSW)    
Max Wind Speed 22 mph    
Max Gust Speed 34 mph    
Visibility 10 miles    
Events      
T = Trace of Precipitation, MM = Missing Value Source: NWS Daily Summary

Daily Weather History Graph

Daily Weather History Graph

Search for Another Location

Airport or City:

Trip Planner

Search our weather history database for the weather conditions in past years. The results will help you decide how hot, cold, wet, or windy it might be!

Date:

Astronomy

Apr. 14, 2014 Rise Set
Actual Time 6:02 AM EDT 7:20 PM EDT
Civil Twilight 5:34 AM EDT 7:49 PM EDT
Nautical Twilight 4:59 AM EDT 8:24 PM EDT
Astronomical Twilight 4:23 AM EDT 9:00 PM EDT
Moon 6:56 PM EDT (4/14) 5:33 AM EDT (4/14)
Length of Visible Light 14h 15m
Length of Day
13h 17m
Full, 100% of the Moon is Illuminated
Apr 14
Full
Apr 15
Full
Apr 22
Last Quarter
Apr 29
New
May 6
First Quarter

Hourly Weather History & Observations

Time (EDT) Temp. Dew Point Humidity Pressure Visibility Wind Dir Wind Speed Gust Speed Precip Events Conditions
12:47 AM 53.1 °F 51.1 °F 93% 30.08 in 6.0 mi SSW 15.0 mph 24.2 mph N/A   Mostly Cloudy
12:56 AM 53.1 °F 52.0 °F 96% 30.09 in 5.0 mi SSW 15.0 mph 21.9 mph N/A   Overcast
1:40 AM 53.1 °F 52.0 °F 96% 30.08 in 10.0 mi SSW 15.0 mph 24.2 mph N/A   Scattered Clouds
1:56 AM 53.1 °F 51.1 °F 93% 30.08 in 10.0 mi SSW 15.0 mph - N/A   Clear
2:56 AM 54.0 °F 51.1 °F 90% 30.07 in 10.0 mi SW 12.7 mph - N/A   Clear
3:56 AM 52.0 °F 50.0 °F 93% 30.07 in 10.0 mi SSW 12.7 mph 19.6 mph N/A   Clear
4:22 AM 52.0 °F 50.0 °F 93% 30.07 in 10.0 mi SW 12.7 mph - N/A   Partly Cloudy
4:37 AM 52.0 °F 50.0 °F 93% 30.06 in 10.0 mi SW 15.0 mph 20.7 mph N/A   Mostly Cloudy
4:49 AM 52.0 °F 50.0 °F 93% 30.06 in 9.0 mi SSW 12.7 mph 25.3 mph N/A   Scattered Clouds
4:56 AM 52.0 °F 50.0 °F 93% 30.06 in 9.0 mi SSW 11.5 mph - N/A   Scattered Clouds
5:04 AM 52.0 °F 51.1 °F 97% 30.06 in 9.0 mi SSW 12.7 mph - N/A   Mostly Cloudy
5:56 AM 53.1 °F 52.0 °F 96% 30.06 in 10.0 mi SW 15.0 mph 24.2 mph N/A   Mostly Cloudy
6:56 AM 53.1 °F 51.1 °F 93% 30.07 in 10.0 mi SSW 12.7 mph - N/A   Partly Cloudy
7:56 AM 55.0 °F 52.0 °F 89% 30.07 in 10.0 mi SSW 17.3 mph - N/A   Clear
8:56 AM 57.9 °F 52.0 °F 81% 30.06 in 10.0 mi SW 20.7 mph 32.2 mph N/A   Clear
9:20 AM 57.9 °F 52.0 °F 81% 30.07 in 10.0 mi SW 21.9 mph 34.5 mph N/A   Overcast
9:56 AM 60.1 °F 52.0 °F 75% 30.07 in 10.0 mi SSW 21.9 mph 32.2 mph N/A   Overcast
10:56 AM 63.0 °F 52.0 °F 67% 30.06 in 10.0 mi SSW 16.1 mph 32.2 mph N/A   Clear
11:56 AM 62.1 °F 53.1 °F 72% 30.06 in 10.0 mi SSW 18.4 mph 29.9 mph N/A   Clear
12:56 PM 64.0 °F 52.0 °F 65% 30.05 in 10.0 mi North - - N/A   Unknown
1:56 PM 62.1 °F 52.0 °F 70% 30.04 in 10.0 mi North - - N/A   Clear
2:56 PM 57.9 °F 51.1 °F 78% 30.02 in 10.0 mi SSW 17.3 mph 27.6 mph N/A   Clear
3:56 PM 59.0 °F 52.0 °F 78% 30.02 in 10.0 mi SSW 16.1 mph 26.5 mph N/A   Clear
4:56 PM 57.0 °F 51.1 °F 81% 30.01 in 10.0 mi SSW 17.3 mph 26.5 mph N/A   Clear
5:56 PM 55.9 °F 50.0 °F 80% 30.01 in 10.0 mi SSW 13.8 mph 26.5 mph N/A   Clear
6:56 PM 53.1 °F 50.0 °F 89% 30.01 in 8.0 mi SSW 15.0 mph 25.3 mph N/A   Clear
7:56 PM 53.1 °F 50.0 °F 89% 30.01 in 9.0 mi SSW 15.0 mph - N/A   Mostly Cloudy
8:56 PM 53.1 °F 50.0 °F 89% 30.02 in 10.0 mi SSW 17.3 mph 25.3 mph N/A   Mostly Cloudy
9:56 PM 53.1 °F 50.0 °F 89% 30.01 in 10.0 mi SSW 12.7 mph 24.2 mph N/A   Overcast
10:56 PM 54.0 °F 50.0 °F 86% 29.99 in 10.0 mi SSW 15.0 mph 24.2 mph N/A   Overcast
11:18 PM 53.1 °F 50.0 °F 89% 29.98 in 10.0 mi SSW 16.1 mph 29.9 mph N/A   Scattered Clouds